Regional Weather Roundup
Issued by NWS Cleveland, OH

Home | Current Version | Previous Version | Text Only | Print | Product List | Glossary Off
Versions: 1 2 3 4 5 6 7 8 9 10 11 12 13 14 15 16 17 18 19 20 21 22 23 24 25 26 27 28 29 30 31 32 33 34 35 36 37 38 39 40 41 42 43 44 45 46 47 48 49 50

000
ASUS41 KCLE 260700
RWRCLE
OHIO REGIONAL WEATHER ROUNDUP
NATIONAL WEATHER SERVICE WILMINGTON, OH
300 AM EDT TUE MAY 26 2015

NOTE: "FAIR" INDICATES FEW OR NO CLOUDS BELOW 12,000 FEET WITH NO
SIGNIFICANT WEATHER AND/OR OBSTRUCTIONS TO VISIBILITY.

OHZ001>008-015>018-024>027-034-035-043-044-260800-
   NORTHWEST OHIO

CITY           SKY/WX    TMP DP  RH WIND       PRES   REMARKS
DEFIANCE       CLEAR     66  62  87 S5        30.04F
FINDLAY        MOCLDY    66  62  87 S8        30.06F
TOLEDO EXPRESS CLEAR     67  62  84 SW6       30.05S
TOLEDO EXEC    PTCLDY    68  61  78 S6        30.06S
LIMA           MOCLDY    68  63  84 S8        30.07F
$$

OHZ009>014-019>023-028>033-038-089-260800-
   NORTHEAST OHIO

CITY           SKY/WX    TMP DP  RH WIND       PRES   REMARKS
CLE-HOPKINS    MOCLDY    70  61  73 S9        30.11S
CLE-LAKEFRONT  PTCLDY    73  61  65 S13G25    30.08R
CUY CO. ARPT   NOT AVBL
LORAIN-ELYRIA  PTCLDY    68  61  78 S9        30.09S
ASHTABULA      PTCLDY    68  60  75 S7        30.11S
AKRON-CANTON   MOCLDY    68  59  73 SW5       30.13F
WOOSTER        NOT AVBL
MANSFIELD      PTCLDY    64  61  90 S7        30.12F
YOUNGSTOWN     MOCLDY    69  61  75 SW8       30.12F
$$

OHZ042-051>053-060>062-070>072-077>081-260800-
  SOUTHWEST OHIO

CITY           SKY/WX    TMP DP  RH WIND       PRES   REMARKS
CINC-COVINGTON PTCLDY    67  63  87 SW6       30.11S
CINC-LUNKEN    PTCLDY    65  63  93 S8        30.11S
HAMILTON       MOCLDY    69  64  84 S5        30.10F
DAYTON         NOT AVBL
WRIGHT-PAT AFB CLOUDY    69  64  85 S6        30.09F
DAYTON GENERAL MOCLDY    68  63  84 SW6       30.09F
WILMINGTON     PTCLDY    65  61  87 S6        30.11F
$$

OHZ036-037-039>041-045>050-054>059-063>069-073>076-082>088-260800-
  CENTRAL AND SOUTHEAST OHIO

CITY           SKY/WX    TMP DP  RH WIND       PRES   REMARKS
COLUMBUS       MOCLDY    68  63  84 SE6       30.11S
OSU AIRPORT    MOCLDY    69  62  78 S6        30.11S
BOLTON FIELD   NOT AVBL
RICKENBACK AFB NOT AVBL
NEWARK         CLOUDY    66  64  93 CALM      30.12S
MARION         MOCLDY    66  61  84 S6        30.10F
LANCASTER      MOCLDY    66  64  93 SE5       30.12F
ZANESVILLE     CLOUDY    66  63  90 E6        30.13F
NEW PHILLY     LGT RAIN  69  64  84 S3        30.16R
$$



USA.gov is the U.S. government's official web portal to all federal, state and local government web resources and services.